Overview Statistics Trail Chart Weather Telemetry Raw packets
 

This is the latest recevied weather packets stored in our database for station/object N5CSU. If no packets are shown the sender has not sent any weather packets the latest 10 day(s).

<< 7 8 9 10 11 12 13 >>
Time Temp. Humidity Pressure Rain* Wind** Luminosity Snow
1788567979 34.44° C 48% 1011.7 hPa 0 mm - 2 W/m² -
1788567674 34.44° C 49% 1011.5 hPa 0 mm - 3 W/m² -
1788567369 34.44° C 48% 1011.4 hPa 0 mm - 3 W/m² -
1788567068 34.44° C 47% 1011.3 hPa 0 mm - 3 W/m² -
1788566763 35° C 46% 1011.5 hPa 0 mm - 4 W/m² -
1788566460 35° C 46% 1011.4 hPa 0 mm - 4 W/m² -
1788566154 35° C 47% 1011.4 hPa 0 mm - 5 W/m² -
1788565854 35° C 46% 1011.3 hPa 0 mm - 5 W/m² -
1788565549 35.56° C 46% 1011.2 hPa 0 mm - 5 W/m² -
1788565245 35° C 46% 1011.4 hPa 0 mm - 6 W/m² -
1788564944 35.56° C 47% 1011.3 hPa 0 mm - 6 W/m² -
1788564641 35.56° C 46% 1011.3 hPa 0 mm - 8 W/m² -
1788564337 35.56° C 46% 1011.1 hPa 0 mm - 9 W/m² -
1788564034 35.56° C 45% 1011.3 hPa 0 mm - 8 W/m² -
1788563730 35.56° C 47% 1011.2 hPa 0 mm - 9 W/m² -
1788563430 36.11° C 46% 1011.2 hPa 0 mm - 11 W/m² -
1788563129 36.11° C 46% 1011.3 hPa 0 mm - 12 W/m² -
1788562825 36.11° C 47% 1011.2 hPa 0 mm - 15 W/m² -
1788562522 36.11° C 47% 1011.1 hPa 0 mm - 18 W/m² -
1788562221 35.56° C 47% 1011.3 hPa 0 mm - 18 W/m² -
1788561917 36.11° C 47% 1011.3 hPa 0 mm - 16 W/m² -
1788561617 36.11° C 47% 1011.4 hPa 0 mm - 19 W/m² -
1788561316 35.56° C 48% 1011.4 hPa 0 mm - 22 W/m² -
1788561012 35.56° C 48% 1011.4 hPa 0 mm - 20 W/m² -
1788560708 36.11° C 47% 1011.5 hPa 0 mm - 16 W/m² -

* Rain latest hour (hover to see other rain measurements)
** Current wind speed in m/s (hover to see current wind gust speed)